Weather History for EGBE - January, 2014

Change the Weather History Date:

Monday, January 20, 2014

  Actual Average Record
Temperature  
Mean Temperature 37 °F -  
Max Temperature 46 °F 44 °F 55 °F (2005)
Min Temperature 28 °F 34 °F 24 °F (2015)
Degree Days  
Heating Degree Days 28    
Moisture  
Dew Point 35 °F    
Average Humidity 88    
Maximum Humidity 93    
Minimum Humidity 71    
Precipitation  
Precipitation 0.00 in - - ()
Sea Level Pressure  
Sea Level Pressure 29.80 in    
Wind  
Wind Speed 2 mph ()    
Max Wind Speed 5 mph    
Max Gust Speed -    
Visibility 3.7 miles    
Events Fog    
Averages and records for this station are not official NWS values.
T = Trace of Precipitation, MM = Missing Value Source: Averaged Metar Reports

Daily Weather History Graph

Daily Weather History Graph

Search for Another Location

Airport or City:

Trip Planner

Search our weather history database for the weather conditions in past years. The results will help you decide how hot, cold, wet, or windy it might be!

Date:

Astronomy

Jan. 20, 2014 Rise Set
Actual Time 8:03 AM GMT 4:30 PM GMT
Civil Twilight 7:24 AM GMT 5:09 PM GMT
Nautical Twilight 6:42 AM GMT 5:51 PM GMT
Astronomical Twilight 6:02 AM GMT 6:32 PM GMT
Moon 9:31 PM GMT (1/20) 9:19 AM GMT (1/20)
Length of Visible Light 9h 44m
Length of Day
8h 26m
Waning Gibbous, 84% of the Moon is Illuminated
Jan 20
Waning Gibbous
Jan 24
Last Quarter
Jan 30
New
Feb 6
First Quarter
Feb 14
Full

Hourly Weather History & Observations

Time (GMT) Temp. Windchill Dew Point Humidity Pressure Visibility Wind Dir Wind Speed Gust Speed Precip Events Conditions
7:20 AM 30.2 °F - 28.4 °F 93% 29.68 in 0.9 mi Variable 1.2 mph - N/A Fog Fog
7:50 AM 30.2 °F - 28.4 °F 93% 29.68 in 0.6 mi Variable 1.2 mph - N/A Fog Light Freezing Fog
8:20 AM 30.2 °F - 28.4 °F 93% 29.71 in 0.1 mi ENE 1.2 mph - N/A Fog Light Freezing Fog
8:50 AM 28.4 °F - 26.6 °F 93% 29.71 in 0.1 mi Calm Calm - N/A Fog Light Freezing Fog
9:20 AM 30.2 °F - 28.4 °F 93% 29.74 in 1.6 mi Calm Calm - N/A Fog Fog
9:50 AM 32.0 °F - 30.2 °F 93% 29.74 in 2.5 mi East 1.2 mph - N/A   Mist
10:20 AM 33.8 °F 30.8 °F 32.0 °F 93% 29.77 in 2.5 mi WSW 3.5 mph - N/A   Mist
10:50 AM 37.4 °F - 35.6 °F 93% 29.77 in 3.1 mi Variable 1.2 mph - N/A   Mist
11:20 AM 39.2 °F - 35.6 °F 87% 29.77 in 3.1 mi Variable 2.3 mph - N/A   Haze
11:50 AM 41.0 °F - 37.4 °F 87% 29.77 in 3.1 mi Calm Calm - N/A   Haze
12:20 PM 42.8 °F - 37.4 °F 81% 29.77 in 4.3 mi Calm Calm - N/A   Unknown
1:20 PM 46.4 °F - 37.4 °F 71% 29.77 in 5.6 mi Variable 1.2 mph - N/A   Partly Cloudy
1:50 PM 46.4 °F 44.3 °F 39.2 °F 76% 29.77 in 6.2 mi SW 4.6 mph - N/A   Partly Cloudy
2:20 PM 46.4 °F 44.3 °F 39.2 °F 76% 29.77 in 6.2 mi SSW 4.6 mph - N/A   Partly Cloudy
2:50 PM 46.4 °F 44.3 °F 39.2 °F 76% 29.80 in 6.2 mi South 4.6 mph - N/A   Partly Cloudy
3:20 PM 44.6 °F 43.1 °F 39.2 °F 81% 29.80 in 6.2 mi South 3.5 mph - N/A   Partly Cloudy
3:50 PM 41.0 °F 39.0 °F 37.4 °F 87% 29.80 in 6.2 mi Variable 3.5 mph - N/A   Scattered Clouds
4:20 PM 41.0 °F - 37.4 °F 87% 29.83 in 6.2 mi SSW 2.3 mph - N/A   Partly Cloudy
4:50 PM 41.0 °F 39.0 °F 37.4 °F 87% 29.83 in 6.2 mi SSE 3.5 mph - N/A   Partly Cloudy
5:20 PM 41.0 °F - 37.4 °F 87% 29.83 in 6.2 mi SSW 2.3 mph - N/A   Partly Cloudy
5:50 PM 41.0 °F - 37.4 °F 87% 29.83 in - South 2.3 mph - N/A   Clear
6:20 PM 41.0 °F - 37.4 °F 87% 29.83 in - South 2.3 mph - N/A   Clear
6:50 PM 39.2 °F - 35.6 °F 87% 29.83 in 6.2 mi Calm Calm - N/A   Partly Cloudy
7:20 PM 39.2 °F - 35.6 °F 87% 29.86 in 6.2 mi Variable 2.3 mph - N/A   Mostly Cloudy
7:50 PM 39.2 °F - 37.4 °F 93% 29.86 in 6.2 mi South 2.3 mph - N/A   Mostly Cloudy
8:20 PM 39.2 °F - 35.6 °F 87% 29.86 in 5.0 mi South 2.3 mph - N/A   Mostly Cloudy
8:50 PM 37.4 °F - 35.6 °F 93% 29.86 in 4.3 mi SSE 2.3 mph - N/A   Scattered Clouds
9:20 PM 37.4 °F - 35.6 °F 93% 29.86 in 3.7 mi South 2.3 mph - N/A Fog Patches of Fog
9:50 PM 35.6 °F 32.8 °F 33.8 °F 93% 29.86 in 1.2 mi South 3.5 mph - N/A Fog Patches of Fog
10:20 PM 35.6 °F 32.8 °F 32.0 °F 87% 29.86 in 0.6 mi South 3.5 mph - N/A Fog Patches of Fog
11:20 PM 33.8 °F - 32.0 °F 93% 29.86 in 0.3 mi SSW 2.3 mph - N/A Fog Fog
11:50 PM 35.6 °F - 33.8 °F 93% 29.86 in 0.3 mi Calm Calm - N/A Fog Fog